Winner, SD

4:45 AM CDT on March 27, 2017 (GMT -0500)
Winner

Weather History for KICR - February, 2014

Change the Weather History Date:

Saturday, February 15, 2014

  Actual Average Record
Temperature  
Mean Temperature 38 °F 27 °F  
Max Temperature 51 °F 37 °F 66 °F (2011)
Min Temperature 25 °F 17 °F 13 °F (2013)
Degree Days  
Heating Degree Days 27 38  
Month to date heating degree days 746 587  
Since 1 July heating degree days 4818 4542  
Cooling Degree Days 0 0  
Month to date cooling degree days 0 0  
Year to date cooling degree days 0 0  
Moisture  
Dew Point 26 °F    
Average Humidity 63    
Maximum Humidity 88    
Minimum Humidity 38    
Precipitation  
Precipitation 0.00 in 0.02 in 0.08 in (2016)
Month to date precipitation 0.01 0.27  
Year to date precipitation 0.03 0.52  
Sea Level Pressure  
Sea Level Pressure 29.89 in    
Wind  
Wind Speed 18 mph (NW)    
Max Wind Speed 39 mph    
Max Gust Speed 47 mph    
Visibility 10 miles    
Events      
T = Trace of Precipitation, MM = Missing Value Source: NWS Daily Summary

Daily Weather History Graph

Daily Weather History Graph

Search for Another Location

Airport or City:

Trip Planner

Search our weather history database for the weather conditions in past years. The results will help you decide how hot, cold, wet, or windy it might be!

Date:

Astronomy

Feb. 15, 2014 Rise Set
Actual Time 7:37 AM CST 6:10 PM CST
Civil Twilight 7:08 AM CST 6:39 PM CST
Nautical Twilight 6:34 AM CST 7:12 PM CST
Astronomical Twilight 6:01 AM CST 7:46 PM CST
Moon 7:14 PM CST (2/15) 7:34 AM CST (2/15)
Length of Visible Light 11h 31m
Length of Day
10h 32m
Waxing Gibbous, 99% of the Moon is Illuminated
Feb 15
Waxing Gibbous
Feb 22
Last Quarter
Mar 1
New
Mar 8
First Quarter
Mar 16
Full

Hourly Weather History & Observations

Time (CST) Temp. Windchill Dew Point Humidity Pressure Visibility Wind Dir Wind Speed Gust Speed Precip Events Conditions
12:53 AM 32.0 °F 21.2 °F 24.1 °F 73% 29.82 in 10.0 mi South 16.1 mph - N/A   Overcast
1:53 AM 36.0 °F 25.0 °F 25.0 °F 64% 29.73 in 10.0 mi South 20.7 mph 27.6 mph N/A   Partly Cloudy
2:53 AM 36.0 °F 25.6 °F 25.0 °F 64% 29.71 in 10.0 mi South 18.4 mph 25.3 mph N/A   Partly Cloudy
3:53 AM 37.0 °F 27.0 °F 26.1 °F 65% 29.70 in 10.0 mi SSW 18.4 mph 24.2 mph N/A   Overcast
4:53 AM 37.9 °F 30.5 °F 26.1 °F 62% 29.70 in 10.0 mi SW 11.5 mph 18.4 mph N/A   Overcast
5:53 AM 42.1 °F 36.1 °F 27.0 °F 55% 29.70 in 10.0 mi West 10.4 mph - N/A   Overcast
6:53 AM 42.1 °F 34.5 °F 28.0 °F 58% 29.72 in 10.0 mi West 15.0 mph - N/A   Overcast
7:53 AM 43.0 °F 34.5 °F 30.9 °F 62% 29.74 in 10.0 mi WNW 19.6 mph - N/A   Clear
8:53 AM 44.1 °F 35.4 °F 30.0 °F 58% 29.76 in 10.0 mi West 21.9 mph - N/A   Clear
9:53 AM 46.9 °F - 30.0 °F 52% 29.78 in 10.0 mi WNW 23.0 mph 32.2 mph N/A   Clear
10:53 AM 50.0 °F - 26.1 °F 39% 29.80 in 10.0 mi NW 34.5 mph 44.9 mph N/A   Clear
11:53 AM 51.1 °F - 26.1 °F 38% 29.83 in 10.0 mi WNW 35.7 mph 43.7 mph N/A   Clear
12:53 PM 50.0 °F - 26.1 °F 39% 29.85 in 10.0 mi WNW 31.1 mph 43.7 mph N/A   Clear
1:53 PM 50.0 °F - 26.1 °F 39% 29.87 in 10.0 mi NW 33.4 mph 41.4 mph N/A   Partly Cloudy
2:53 PM 48.0 °F - 28.0 °F 46% 29.90 in 10.0 mi NNW 28.8 mph 39.1 mph N/A   Partly Cloudy
3:53 PM 46.9 °F - 28.0 °F 48% 29.95 in 10.0 mi NW 25.3 mph 35.7 mph N/A   Partly Cloudy
4:53 PM 44.1 °F 36.8 °F 28.9 °F 55% 30.00 in 10.0 mi North 16.1 mph 25.3 mph N/A   Partly Cloudy
5:53 PM 37.9 °F 28.9 °F 28.0 °F 68% 30.04 in 10.0 mi North 16.1 mph - N/A   Clear
6:53 PM 33.1 °F 30.0 °F 27.0 °F 78% 30.09 in 10.0 mi WNW 3.5 mph - N/A   Clear
7:53 PM 30.9 °F 21.7 °F 26.1 °F 82% 30.10 in 10.0 mi North 11.5 mph - N/A   Clear
8:53 PM 28.0 °F 24.2 °F 24.1 °F 85% 30.12 in 8.0 mi North 3.5 mph - N/A   Clear
9:53 PM 25.0 °F 18.1 °F 21.9 °F 88% 30.13 in 9.0 mi NNW 5.8 mph - N/A   Mostly Cloudy
10:02 PM 26.6 °F 20.0 °F 23.0 °F 86% 30.07 in 10.0 mi NNW 5.8 mph - N/A   Mostly Cloudy
10:53 PM 26.1 °F 21.9 °F 23.0 °F 88% 30.12 in 8.0 mi ENE 3.5 mph - N/A   Overcast
11:53 PM 25.0 °F 19.3 °F 21.9 °F 88% 30.10 in 9.0 mi North 4.6 mph - N/A   Overcast